TimeCDT,TemperatureF,Dew PointF,Humidity,Sea Level PressureIn,VisibilityMPH,Wind Direction,Wind SpeedMPH,Gust SpeedMPH,PrecipitationIn,Events,Conditions,WindDirDegrees,DateUTC
12:56 AM,55.0,53.1,93,30.10,10.0,NNW,5.8,-,N/A,,Clear,330,2013-07-10 05:56:00
1:56 AM,54.0,52.0,93,30.10,10.0,NW,4.6,-,N/A,,Clear,320,2013-07-10 06:56:00
2:56 AM,55.9,52.0,87,30.11,10.0,West,4.6,-,N/A,,Clear,270,2013-07-10 07:56:00
3:56 AM,54.0,51.1,90,30.11,10.0,West,4.6,-,N/A,,Clear,270,2013-07-10 08:56:00
4:56 AM,54.0,52.0,93,30.11,10.0,West,4.6,-,N/A,,Clear,280,2013-07-10 09:56:00
5:56 AM,54.0,52.0,93,30.12,9.0,West,5.8,-,N/A,,Clear,280,2013-07-10 10:56:00
6:56 AM,55.0,53.1,93,30.12,8.0,Calm,Calm,-,N/A,,Clear,0,2013-07-10 11:56:00
7:56 AM,60.1,55.0,83,30.12,9.0,West,3.5,-,N/A,,Clear,260,2013-07-10 12:56:00
8:56 AM,64.0,55.9,75,30.12,10.0,West,5.8,-,N/A,,Clear,260,2013-07-10 13:56:00
9:56 AM,69.1,55.0,61,30.12,10.0,West,6.9,-,N/A,,Clear,260,2013-07-10 14:56:00
10:56 AM,71.1,51.1,49,30.12,10.0,Variable,6.9,-,N/A,,Clear,0,2013-07-10 15:56:00
11:56 AM,73.0,48.0,41,30.10,9.0,SW,5.8,-,N/A,,Clear,220,2013-07-10 16:56:00
12:56 PM,75.9,48.9,38,30.09,10.0,WSW,8.1,-,N/A,,Clear,250,2013-07-10 17:56:00
1:56 PM,77.0,48.0,36,30.07,10.0,Variable,3.5,-,N/A,,Clear,0,2013-07-10 18:56:00
2:56 PM,79.0,46.0,31,30.05,10.0,WSW,6.9,-,N/A,,Clear,240,2013-07-10 19:56:00
3:56 PM,80.1,45.0,29,30.04,10.0,WNW,9.2,-,N/A,,Clear,290,2013-07-10 20:56:00
4:56 PM,80.1,44.1,28,30.02,10.0,West,10.4,-,N/A,,Clear,280,2013-07-10 21:56:00
5:56 PM,80.1,43.0,27,30.01,10.0,WSW,9.2,-,N/A,,Clear,250,2013-07-10 22:56:00
6:56 PM,79.0,45.0,30,30.00,10.0,Calm,Calm,-,N/A,,Clear,0,2013-07-10 23:56:00
7:56 PM,78.1,46.9,33,30.00,10.0,WNW,3.5,-,N/A,,Clear,290,2013-07-11 00:56:00
8:56 PM,75.9,48.0,37,29.99,10.0,Calm,Calm,-,N/A,,Clear,0,2013-07-11 01:56:00
9:56 PM,66.0,53.1,63,30.01,10.0,SSE,4.6,-,N/A,,Clear,150,2013-07-11 02:56:00
10:56 PM,64.9,53.1,65,30.01,10.0,South,4.6,-,N/A,,Clear,180,2013-07-11 03:56:00
11:56 PM,61.0,53.1,75,30.01,10.0,South,6.9,-,N/A,,Clear,180,2013-07-11 04:56:00